Location: Dehesa de la Cepeda
(40.6574°N, 4.3013°W)
Time: 08:02:18
(UTC+00:00)

Vanguard 3 - Pass Details

Date: 03 August 2021
Orbit: 510 x 3260 km, 33.3° (Epoch: 18 September)

Event Time Altitude Azimuth Distance (km) Brightness Sun altitude
Rises 22:06:10 0° 278° (W) 6,606 12.4 -23.9°
Reaches altitude 10° 22:10:22 10° 274° (W) 5,824 12.0 -24.4°
Maximum altitude 22:28:28 52° 206° (SSW) 3,752 10.2 -26.2°
Enters shadow 22:36:32 37° 157° (SSE) 4,169 10.1 -27.0°
